Location: Azul
(36.7830°S, 59.8500°W)
Time: 17:50:52
(UTC-03:00)

VELOX 1 - Pass Details

Date: 29 October 2021
Orbit: 627 x 641 km, 98.3° (Epoch: 06 December)

Event Time Altitude Azimuth Distance (km) Brightness Sun altitude
Rises 05:12:38 0° 163° (SSE) 2,956 ? -9.2°
Reaches altitude 10° 05:14:54 10° 158° (SSE) 2,038 ? -8.7°
Maximum altitude 05:19:15 55° 80° (E) 769 ? -7.9°
Drops below altitude 10° 05:23:32 10° 1° (N) 2,006 ? -7.2°
Sets 05:25:45 0° 356° (N) 2,905 ? -6.7°
